www.pogodaiklimat.ru

Погода и климат >> Архив погоды >> Австралия >> Западная Австралия >> Роборн


ПОГОДА в Роборне

  • Прогноз погоды в Роборне
  • Монитор погоды в Роборне

АРХИВ ПОГОДЫ в Роборне

Время (UTC), дата Ветер
(напр.,м/с)
 
Видим.   Явления Облачность Т
(С)
Тd
(С)
f
(%)
Тe
(С)
Тes
(С)
Комфортность P
(гПа)
Po
(гПа)
Тmin
(С)
Tmax
(С)
R
(мм)
R24
(мм)
S
(см)
07 11.02 С 9 н/о н/о +37.9 +25.7 50 +52 +52 опасность
перегрева
1006.9 1005.7
09 11.02 СЗ 6 н/о н/о +35.9 +24.5 52 +48 +48 опасность
перегрева
1006.8 1005.6
10 11.02 СЗ 7 н/о н/о +34.2 +24.5 57 +47 +47 опасность
перегрева
1006.9 1005.7
12 11.02 СЗ 5 н/о н/о +30.2 +25.9 78 +45 +45 опасность
перегрева
1009.3 1008.0
13 11.02 СЗ 6 н/о н/о +29.7 +25.9 80 +44 +44 опасность
перегрева
1009.9 1008.6 +41.7
15 11.02 СЗ 7 н/о н/о +28.9 +24.9 79 +41 +41 опасность
перегрева
1010.4 1009.1
16 11.02 СЗ 7 н/о н/о +28.6 +24.4 78 +40 +40 очень
душно
1009.7 1008.4
18 11.02 З 6 н/о н/о +28.5 +24.9 81 +41 +41 опасность
перегрева
1009.1 1007.8
19 11.02 З 6 н/о н/о +28.4 +24.8 81 +41 +41 опасность
перегрева
1008.9 1007.6
21 11.02 З 5 н/о н/о +27.9 +24.5 82 +39 +39 очень
душно
1009.5 1008.2
22 11.02 З 4 н/о н/о +27.6 +24.4 83 +39 +39 очень
душно
1009.9 1008.6
00 12.02 З 4 н/о н/о +30.8 +24.2 68 +43 +43 опасность
перегрева
1010.5 1009.2
01 12.02 З 4 н/о н/о +32.6 +23.5 59 +44 +44 опасность
перегрева
1010.3 1009.0 +27.6
03 12.02 З 6 н/о н/о +37.3 +24.1 47 +49 +49 опасность
перегрева
1009.6 1008.3
04 12.02 СЗ 5 н/о н/о +37.5 +22.0 41 +46 +46 опасность
перегрева
1009.2 1007.9
06 12.02 СЗ 8 н/о н/о +38.7 +20.9 36 +45 +45 опасность
перегрева
1008.1 1006.8
07 12.02 СЗ 9 н/о н/о +37.8 +21.9 40 +46 +46 опасность
перегрева
1007.2 1006.0
09 12.02 СЗ 8 н/о н/о +36.6 +22.0 43 +45 +45 опасность
перегрева
1007.1 1005.9
10 12.02 СЗ 7 н/о н/о +33.9 +21.3 48 +42 +42 опасность
перегрева
1008.7 1007.4
12 12.02 СЗ 5 н/о н/о +31.1 +24.0 66 +43 +43 опасность
перегрева
1010.0 1008.7
13 12.02 СЗ 6 н/о н/о +30.2 +23.9 69 +42 +42 опасность
перегрева
1010.3 1009.0 +40.2
15 12.02 СЗ 9 н/о н/о +29.2 +24.3 75 +41 +41 опасность
перегрева
1009.8 1008.5
16 12.02 З 9 н/о н/о +28.9 +24.7 78 +41 +41 опасность
перегрева
1009.6 1008.3
18 12.02 З 7 н/о н/о +28.3 +23.9 77 +39 +39 очень
душно
1009.7 1008.4
19 12.02 З 6 н/о н/о +28.3 +23.4 75 +38 +38 очень
душно
1009.6 1008.3
21 12.02 З 4 н/о н/о +28.1 +23.9 78 +39 +39 очень
душно
1010.2 1008.9
22 12.02 З 4 н/о н/о +27.6 +23.8 80 +38 +38 очень
душно
1010.6 1009.3
00 13.02 З 5 н/о н/о +31.0 +23.9 66 +43 +43 опасность
перегрева
1011.6 1010.3
01 13.02 З 5 н/о н/о +32.2 +23.2 59 +43 +43 опасность
перегрева
1011.6 1010.3 +27.6
03 13.02 З 5 н/о н/о +36.9 +22.6 44 +46 +46 опасность
перегрева
1011.4 1010.1
04 13.02 СЗ 4 н/о н/о +38.2 +21.8 39 +46 +46 опасность
перегрева
1010.6 1009.3
06 13.02 СЗ 10 н/о н/о +37.1 +22.8 44 +47 +47 опасность
перегрева
1009.2 1007.9
07 13.02 СЗ 9 н/о н/о +35.7 +21.2 43 +43 +43 опасность
перегрева
1009.0 1007.7
09 13.02 СЗ 11 н/о н/о +33.2 +22.9 55 +43 +43 опасность
перегрева
1008.4 1007.1
10 13.02 СЗ 9 н/о н/о +31.8 +23.6 62 +43 +43 опасность
перегрева
1008.7 1007.4
12 13.02 З 7 н/о н/о +29.7 +23.4 69 +40 +40 очень
душно
1009.8 1008.5
13 13.02 З 7 н/о н/о +29.0 +23.9 74 +40 +40 очень
душно
1010.3 1009.0 +39.3
15 13.02 З 6 н/о н/о +28.3 +24.3 79 +40 +40 очень
душно
1010.9 1009.6
16 13.02 СЗ 7 н/о н/о +28.3 +24.1 78 +39 +39 очень
душно
1010.7 1009.4
18 13.02 З 6 н/о н/о +27.7 +23.3 77 +37 +37 очень
душно
1010.0 1008.7
19 13.02 З 5 н/о н/о +27.6 +22.8 75 +37 +37 очень
душно
1010.4 1009.1
21 13.02 З 4 н/о н/о +27.3 +23.3 79 +37 +37 очень
душно
1010.5 1009.2
22 13.02 З 5 н/о н/о +27.2 +23.4 80 +37 +37 очень
душно
1010.8 1009.5
00 14.02 З 6 н/о н/о +29.9 +23.6 69 +41 +41 опасность
перегрева
1011.5 1010.2
01 14.02 З 6 н/о н/о +31.9 +22.9 59 +42 +42 опасность
перегрева
1011.9 1010.6 +27.1
03 14.02 З 7 н/о н/о +35.3 +23.0 49 +45 +45 опасность
перегрева
1011.4 1010.1
04 14.02 СЗ 7 н/о н/о +36.5 +23.0 46 +46 +46 опасность
перегрева
1010.7 1009.4
06 14.02 СЗ 9 н/о н/о +38.2 +21.8 39 +46 +46 опасность
перегрева
1009.1 1007.8
07 14.02 СЗ 9 н/о н/о +38.0 +19.9 35 +43 +43 опасность
перегрева
1008.8 1007.5
09 14.02 З 10 н/о н/о +36.9 +18.0 33 +41 +41 опасность
перегрева
1008.2 1006.9
10 14.02 СЗ 9 н/о н/о +35.0 +19.4 40 +40 +40 очень
душно
1008.7 1007.4
12 14.02 З 6 н/о н/о +31.3 +22.6 60 +41 +41 опасность
перегрева
1010.5 1009.2
13 14.02 З 5 н/о н/о +30.3 +24.0 69 +42 +42 опасность
перегрева
1011.1 1009.8 +39.4
15 14.02 З 6 н/о н/о +29.1 +24.0 74 +40 +40 очень
душно
1011.8 1010.5
16 14.02 З 4 н/о н/о +28.7 +22.4 69 +38 +38 очень
душно
1012.1 1010.8
18 14.02 З 6 н/о н/о +28.4 +20.7 63 +35 +35 очень
душно
1011.1 1009.8
19 14.02 З 6 н/о н/о +28.3 +20.8 64 +35 +35 очень
душно
1010.8 1009.5
21 14.02 З 5 н/о н/о +28.2 +22.0 69 +36 +36 очень
душно
1011.3 1010.0
22 14.02 З 3 н/о н/о +27.2 +21.7 72 +35 +35 очень
душно
1011.9 1010.6
00 15.02 З 5 н/о н/о +31.1 +24.0 66 +43 +43 опасность
перегрева
1012.8 1011.5
01 15.02 З 5 н/о н/о +34.6 +17.3 36 +38 +38 очень
душно
1013.2 1011.9 +27.3
03 15.02 З 3 н/о н/о +39.0 +15.4 25 +40 +40 очень
душно
1011.9 1010.6
04 15.02 ЮЗ 4 н/о н/о +41.6 +14.8 21 +42 +42 опасность
перегрева
1010.8 1009.5
06 15.02 СЗ 7 н/о н/о +42.2 +18.1 25 +45 +45 опасность
перегрева
1009.2 1007.9
07 15.02 СЗ 8 н/о н/о +41.9 +17.2 24 +44 +44 опасность
перегрева
1008.7 1007.4
09 15.02 СЗ 9 н/о н/о +39.0 +18.3 30 +43 +43 опасность
перегрева
1008.4 1007.1
10 15.02 З 9 н/о н/о +38.2 +18.1 31 +42 +42 опасность
перегрева
1008.8 1007.5
12 15.02 З 6 н/о н/о +35.5 +19.8 40 +41 +41 опасность
перегрева
1010.2 1008.9
13 15.02 З 5 н/о н/о +35.1 +17.3 35 +38 +38 очень
душно
1010.8 1009.5 +43.4
15 15.02 З 5 н/о н/о +33.3 +17.5 39 +37 +37 очень
душно
1010.5 1009.2
16 15.02 З 5 н/о н/о +32.3 +16.6 39 +35 +35 очень
душно
1009.8 1008.5
18 15.02 З 6 н/о н/о +31.3 +19.9 51 +38 +38 очень
душно
1008.5 1007.2
19 15.02 ЮЗ 5 н/о н/о +32.3 +17.4 41 +36 +36 очень
душно
1008.1 1006.8
21 15.02 СЗ 4 н/о н/о +30.8 +21.0 56 +38 +38 очень
душно
1008.7 1007.4
22 15.02 СЗ 3 н/о н/о +28.8 +20.5 61 +36 +36 очень
душно
1008.8 1007.5
00 16.02 ЮЗ 1 н/о н/о +30.9 +18.9 49 +36 +36 очень
душно
1009.4 1008.1
01 16.02 ЮВ 5 н/о н/о +40.4 +7.8 14 +38 +38 очень
жарко
1009.6 1008.3 +28.4
03 16.02 В 7 н/о н/о +45.2 +5.0 9 +42 +42 опасность
перегрева
1008.3 1007.0
04 16.02 СВ 7 н/о н/о +45.7 +9.6 12 +44 +44 опасность
перегрева
1007.3 1006.1
06 16.02 С 7 н/о н/о +46.0 +13.2 15 +46 +46 опасность
перегрева
1005.9 1004.7
07 16.02 С 9 н/о н/о +43.9 +14.3 18 +44 +44 опасность
перегрева
1005.8 1004.6
09 16.02 СЗ 8 н/о н/о +41.0 +13.6 20 +41 +41 опасность
перегрева
1006.1 1004.9
10 16.02 СЗ 7 н/о н/о +40.3 +15.2 23 +41 +41 опасность
перегрева
1006.3 1005.1
12 16.02 СЗ 6 н/о н/о +35.1 +20.2 42 +41 +41 опасность
перегрева
1007.2 1006.0
13 16.02 СЗ 5 н/о н/о +34.1 +20.8 46 +41 +41 опасность
перегрева
1007.2 1006.0 +47.4
15 16.02 З 3 н/о н/о +32.2 +22.3 56 +41 +41 опасность
перегрева
1007.1 1005.9
16 16.02 Ю 3 н/о н/о +31.3 +22.0 58 +40 +40 очень
душно
1006.3 1005.1
18 16.02 Ю 3 н/о н/о +32.3 +21.5 53 +40 +40 очень
душно
1005.7 1004.5
19 16.02 СВ 1 н/о н/о +31.1 +20.7 54 +38 +38 очень
душно
1005.9 1004.7
21 16.02 Ю 3 н/о н/о +29.7 +20.8 59 +37 +37 очень
душно
1006.3 1005.1
22 16.02 В 4 н/о н/о +29.6 +22.1 64 +38 +38 очень
душно
1006.3 1005.1
00 17.02 СВ 4 н/о н/о +32.9 +25.2 64 +47 +47 опасность
перегрева
1008.2 1006.9
01 17.02 С 7 н/о н/о +33.4 +25.4 63 +48 +48 опасность
перегрева
1008.6 1007.3 +29.0
03 17.02 С 6 н/о н/о +36.2 +22.7 46 +46 +46 опасность
перегрева
1008.2 1006.9
04 17.02 С 6 н/о н/о +37.0 +22.7 44 +46 +46 опасность
перегрева
1007.4 1006.2
06 17.02 С 6 н/о н/о +37.9 +20.2 36 +44 +44 опасность
перегрева
1005.9 1004.7
07 17.02 С 7 н/о н/о +38.8 +19.1 32 +43 +43 опасность
перегрева
1005.3 1004.1
09 17.02 С 6 н/о н/о +37.9 +22.4 41 +47 +47 опасность
перегрева
1004.4 1003.2
10 17.02 СЗ 5 н/о н/о +36.2 +22.7 46 +46 +46 опасность
перегрева
1005.2 1004.0
12 17.02 С 2 н/о н/о +35.9 +18.5 36 +40 +40 очень
душно
1006.9 1005.7
13 17.02 С 5 н/о н/о +33.2 +24.4 60 +46 +46 опасность
перегрева
1006.5 1005.3 +40.4
15 17.02 СЗ 5 н/о н/о +31.4 +26.0 73 +47 +47 опасность
перегрева
1007.4 1006.2
16 17.02 СЗ 5 н/о н/о +30.8 +25.6 74 +45 +45 опасность
перегрева
1007.1 1005.9
18 17.02 СЗ 4 н/о н/о +30.5 +24.4 70 +43 +43 опасность
перегрева
1006.5 1005.3
19 17.02 СЗ 4 н/о н/о +30.3 +23.0 65 +40 +40 очень
душно
1006.2 1005.0
21 17.02 СВ 3 н/о н/о +28.1 +20.4 63 +35 +35 очень
душно
1006.3 1005.1
22 17.02 ЮЗ 6 н/о н/о +30.4 +20.0 54 +37 +37 очень
душно
1006.2 1005.0
00 18.02 СЗ 2 н/о н/о +33.3 +17.5 39 +37 +37 очень
душно
1007.5 1006.3
01 18.02 З 3 н/о н/о +37.4 +15.8 28 +39 +39 очень
душно
1007.6 1006.4 +27.9
03 18.02 СВ 5 н/о н/о +38.2 +21.4 38 +45 +45 опасность
перегрева
1007.9 1006.6
06 18.02 С 6 н/о н/о +40.4 +18.9 29 +45 +45 опасность
перегрева
1006.0 1004.8
07 18.02 СЗ 8 н/о н/о +40.8 +16.2 24 +43 +43 опасность
перегрева
1005.5 1004.3

 

Местоположение метеостанции Роборн (Западная Австралия, Австралия): широта -20.75 долгота 117.15 высота над уровнем моря 11 м.

В архиве по умолчанию представлена погода в Роборне за последнюю неделю. Архивные данные за месяц целиком и за предыдущие месяцы, начиная с января 2011 года, Вы можете получить, выбрав интересующий диапазон дат из раскрывающегося списка и нажав кнопку "Ввод!".


*Определитесь, кто Вы:
робот инопланетянин человек

Внимание! Время в таблицах - всемирное. Для получения местного времени необходимо прибавить поправку, которая равна 8 ч.

Смотрите также архив погоды в соседних городах и на ближайших метеорологических станциях:

Погода в Каррате (Западная Австралия, Австралия) (40 км)
Погода в Марди (Западная Австралия, Австралия) (132 км)
Погода в Порт-Хедленде (Западная Австралия, Австралия) (160 км)
Погода на Острове Варанас (Западная Австралия, Австралия) (165 км)
Погода в Барроу-Айленд (Западная Австралия, Австралия) (183 км)
Погода в Онслоу (Западная Австралия, Австралия) (234 км)
Погода на Острове Тевенард (Западная Австралия, Австралия) (234 км)
Погода в Марбл-баре (Западная Австралия, Австралия) (274 км)
Погода в Параберду (Западная Австралия, Австралия) (276 км)
Погода в Лермонте (Западная Австралия, Австралия) (358 км)

Пояснения к столбцам:

Ветер - указаны скорость ветра в м/с - средняя за 10 мин, порывы в срок и между сроками (в фигурных скобках) и направление, откуда дует ветер: С - северный, СВ - северо-восточный, В - восточный, ЮВ - юго-восточный, Ю - южный, ЮЗ - юго-западный, З - западный, СЗ - северо-западный.
Видимость - горизонтальная дальность видимости в метрах или километрах. При видимости от 1 до 10 км при отсутствии осадков обычно наблюдается дымка, при ухудшении видимости до 1 км и менее - туман. В сухую погоду видимость может ухудшаться дымом, пылью или мглою.
Явления - указаны атмосферные явления, наблюдавшиеся в срок или в последний час перед сроком; фигурными скобками обозначены явления, наблюдавшиеся между сроками (за 1-3 часа до срока); квадратными скобками обозначены град или гололедные отложения с указанием их диаметра в мм.
Облачность - указаны через наклонную черту общая и нижняя облачность в баллах и высота нижней границы облаков в метрах; квадратными скобками обозначены формы облаков: Ci - перистые, Cs - перисто-слоистые, Cc - перисто-кучевые, Ac - высококучевые, As - высокослоистые, Sc - слоисто-кучевые, Ns - слоисто-дождевые, Cu - кучевые, Cb - кучево-дождевые. Подробнее классификацию облаков см. в Атласе облаков (PDF).
T - Температура воздуха - температура, измеренная на высоте 2 м над землей.
Td - Температура точки росы - температура, при понижении до которой содержащийся в воздухе водяной пар достигнет насыщения.
f - Относительная влажность воздуха - влажноcть воздуха, измеренная на высоте 2 м над землей.
Te - Эффективная температура - температура, которую ощущает одетый по сезону человек в тени. Характеристика душности погоды. При расчете учитывается влияние влажности воздуха и скорости ветра на теплоощущения человека.
Tes - Эффективная температура на солнце - температура, которую ощущает человек, с поправкой на солнечный нагрев. Характеристика знойности погоды. Зависит от высоты солнца над горизонтом, облачности и скорости ветра. Ночью, в пасмурную погоду, а также при ветре 12 м/с и более поправка равна нулю.
P - Атмосферное давление - приведенное к уровню моря атмосферное давление.
Po - Атмосферное давление - измеренное на уровне метеостанции атмосферное давление.
Tmin - Минимальная температура - минимум температуры воздуха на высоте 2 м над землей.
Tmax - Максимальная температура - максимум температуры воздуха на высоте 2 м над землей.
R - Количество осадков - Количество выпавших осадков за период времени, мм. При наведении курсора мыши на число - период времени, за который выпало указанное количество осадков.
R24 - Количество осадков - Количество выпавших осадков за 24 часа, мм.
S - Снежный покров - Высота снежного покрова, см. При наведении курсора мыши на число - состояние снежного покрова и степень покрытия местности в баллах.